sat.trackr.live / text

‹ back to catalog

STARLINK-33739

NORAD 63572 · 2025-076D

PAYLOAD ACTIVE UNKNOWN

§ Identity

Operator
Country
US
Launch date
2025-04-14
Launch site
AFETR
Launch vehicle
Mass (kg)
RCS (m²)

Purposes: comms

External: N2YO · Heavens-Above · Gunter

§ Orbital elements

Epoch: 2026-05-24T15:35:51.144864Z

Period
94.27 min
Inclination
42.9998°
Eccentricity
0.0001618
Mean motion
15.27592424 rev/d
Perigee alt
481.9 km
Apogee alt
484.1 km
Semi-major
6,861.1 km
B*
5.9010e-4
RAAN
253.0531°
Arg perigee
277.4072°
Mean anomaly
82.6596°
Rev number
6,344

§ Raw data

STARLINK-337391 63572U 25076D   26144.64989751  .00016018  00000+0  59010-3 0  99922 63572  42.9998 253.0531 0001618 277.4072  82.6596 15.27592424 63444

JSON: /api/v1/satellites/63572 · /tle

For live sub-satellite position, see the globe view (requires WebGL).

§ Visibility from observer

Set your observer location to see the next 7 days of passes ≥ 10°. The values pass through the URL so the page stays shareable.

No JS? Fill the form by hand. The geolocation button needs JavaScript.